EA3ANS-1 Weather Reports


time (UTC)temp
F
wind
direction
speed
knots
gust
knots
rain 1hr
in
rain 24hr
in
rain mn
in
humidity
%
barometer
mb
20260506180242 66 115 6.1 6.1 0.00 0.17 0.00 1010.5
20260506175245 67 145 5.2 3.5 0.00 0.17 0.00 1010.3
20260506174244 67 117 3.5 4.3 0.00 0.17 0.00 1010.3
20260506173246 68 131 3.5 3.5 0.00 0.17 0.00 1010.2
20260506172249 69 113 1.7 2.6 0.00 0.17 0.00 1010.1
20260506171245 67 128 3.5 4.3 0.00 0.17 0.00 1010.0
20260506170244 68 135 4.3 4.3 0.00 0.17 0.00 1010.0
20260506165244 67 143 6.1 7.8 0.00 0.17 0.00 1010.0
20260506164244 67 132 6.1 4.3 0.00 0.17 0.00 1009.9
20260506163244 68 118 5.2 7.0 0.00 0.17 0.00 1009.8
20260506162246 69 158 6.1 7.0 0.00 0.17 0.00 1009.8
20260506161248 68 155 7.8 3.5 0.00 0.17 0.00 1009.6
20260506160246 69 70 7.0 7.0 0.00 0.17 0.00 1009.6
20260506155249 71 138 6.1 6.1 0.00 0.17 0.00 1009.6
20260506154244 71 163 6.1 9.6 0.00 0.17 0.00 1009.6
20260506153244 72 335 1.7 2.6 0.00 0.17 0.00 1009.6
20260506152245 73 134 2.6 3.5 0.00 0.17 0.00 1009.7
20260506151247 73 250 4.3 5.2 0.00 0.17 0.00 1009.7
20260506150250 73 253 1.7 2.6 0.00 0.17 0.00 1009.8
20260506145246 72 235 7.0 8.7 0.00 0.17 0.00 1009.9
20260506144249 72 142 1.7 0.0 0.00 0.17 0.00 1009.9
20260506143243 71 236 7.8 7.8 0.00 0.17 0.00 1010.1
20260506142245 71 252 6.1 7.0 0.00 0.17 0.00 1010.3
20260506141244 72 283 2.6 3.5 0.00 0.17 0.00 1010.3
20260506140245 70 284 7.8 3.5 0.00 0.17 0.00 1010.5
20260506135248 70 228 3.5 2.6 0.00 0.17 0.00 1010.4
20260506134244 70 242 2.6 6.1 0.00 0.17 0.00 1010.7
20260506133245 69 222 0.9 0.0 0.00 0.17 0.00 1010.7
20260506132245 69 307 4.3 5.2 0.00 0.17 0.00 1010.8
20260506131244 71 302 4.3 3.5 0.00 0.17 0.00 1011.0
20260506130244 69 267 6.1 6.1 0.00 0.17 0.00 1011.1
20260506125244 70 221 4.3 4.3 0.00 0.17 0.00 1011.1
20260506124246 69 249 7.8 5.2 0.00 0.17 0.00 1011.0
20260506123244 71 217 2.6 6.1 0.00 0.17 0.00 1011.0
20260506122245 71 215 7.8 3.5 0.00 0.17 0.00 1011.2
20260506121244 69 160 2.6 4.3 0.00 0.17 0.00 1011.2
20260506120246 68 309 4.3 6.1 0.00 0.17 0.00 1011.3
20260506115247 68 266 4.3 2.6 0.00 0.17 0.00 1011.4
20260506114250 68 309 7.8 7.8 0.00 0.17 0.00 1011.4
20260506113253 69 197 1.7 3.5 0.00 0.17 0.00 1011.4
20260506112250 68 242 8.7 7.8 0.00 0.17 0.00 1011.6
20260506111253 68 338 3.5 3.5 0.00 0.17 0.00 1011.6
20260506110249 67 207 5.2 3.5 0.00 0.17 0.00 1011.8
20260506105243 67 194 3.5 3.5 0.00 0.17 0.00 1011.8
20260506104245 67 283 2.6 5.2 0.00 0.17 0.00 1011.9
20260506103248 66 259 5.2 4.3 0.00 0.17 0.00 1011.9
20260506102245 66 229 5.2 5.2 0.00 0.17 0.00 1012.0
20260506101243 64 257 6.1 3.5 0.00 0.17 0.00 1012.1
20260506100246 65 32 2.6 1.7 0.00 0.17 0.00 1012.2
20260506095240 64 108 0.0 0.0 0.00 0.17 0.00 1012.4
20260506094243 63 177 0.9 0.0 0.00 0.17 0.00 1012.5
20260506093246 62 51 0.0 0.9 0.00 0.17 0.00 1012.6
20260506092244 63 333 0.9 2.6 0.00 0.17 0.00 1012.8
20260506091247 61 84 2.6 3.5 0.00 0.17 0.00 1012.7
20260506090243 59 0 5.2 3.5 0.00 0.17 0.00 1012.8
20260506085241 59 342 4.3 7.8 0.00 0.17 0.00 1012.7
20260506084242 59 27 2.6 2.6 0.00 0.17 0.00 1012.8
20260506083243 58 311 3.5 7.0 0.00 0.17 0.00 1012.8
20260506082241 57 13 3.5 5.2 0.00 0.17 0.00 1012.7
20260506081242 57 340 7.0 7.0 0.00 0.17 0.00 1012.6
20260506080245 57 332 5.2 7.0 0.00 0.17 0.00 1012.5
20260506073241 54 293 5.2 7.8 0.00 0.17 0.00 1012.4
20260506072241 54 319 6.1 6.1 0.00 0.17 0.00 1012.1
20260506071241 52 336 6.1 7.8 0.00 0.17 0.00 1012.5
20260506070243 51 357 7.0 4.3 0.00 0.17 0.00 1012.6
20260506062243 50 1 5.2 3.5 0.00 0.17 0.00 1012.5
20260506061240 50 25 5.2 4.3 0.00 0.17 0.00 1012.5
20260506060243 49 318 6.1 6.1 0.00 0.17 0.00 1012.3
20260506051246 48 300 4.3 4.3 0.00 0.17 0.00 1012.1
20260506050248 49 309 4.3 3.5 0.00 0.17 0.00 1011.9
20260506044254 49 280 3.5 2.6 0.00 0.17 0.00 1011.7
20260506043254 49 359 4.3 4.3 0.00 0.17 0.00 1011.9
20260506042248 49 308 4.3 1.7 0.00 0.17 0.00 1011.7
20260506041245 49 314 1.7 1.7 0.00 0.17 0.00 1011.6
20260506040242 49 305 0.0 2.6 0.00 0.17 0.00 1011.5
20260506035242 49 281 3.5 0.9 0.00 0.17 0.00 1011.6
20260506034244 50 325 4.3 4.3 0.00 0.17 0.00 1011.5
20260506033247 50 314 4.3 3.5 0.00 0.17 0.00 1011.4
20260506032249 50 329 3.5 4.3 0.00 0.17 0.00 1011.3
20260506031242 50 338 6.1 3.5 0.00 0.17 0.00 1011.3
20260506030241 50 188 0.0 0.0 0.00 0.17 0.00 1011.3
20260506025242 50 309 2.6 3.5 0.00 0.17 0.00 1011.3
20260506024242 51 332 3.5 2.6 0.00 0.17 0.00 1011.2
20260506023242 51 273 0.0 1.7 0.00 0.17 0.00 1011.2
20260506022245 51 245 2.6 0.0 0.00 0.17 0.00 1011.1
20260506021247 50 350 0.0 0.0 0.00 0.17 0.00 1011.1
20260506020245 50 350 0.0 0.0 0.00 0.17 0.00 1011.0
20260506015243 51 350 0.0 0.0 0.00 0.17 0.00 1010.9
20260506014246 51 350 0.0 0.0 0.00 0.17 0.00 1010.9
20260506013243 51 350 0.0 0.0 0.00 0.17 0.00 1010.8
20260506012244 52 350 0.0 0.0 0.00 0.17 0.00 1010.8
20260506011247 52 350 0.0 0.0 0.00 0.17 0.00 1010.9
20260506010247 52 350 0.0 0.0 0.00 0.17 0.00 1010.9
20260506005244 52 350 0.0 0.0 0.00 0.17 0.00 1011.0
20260506004246 53 321 3.5 1.7 0.00 0.17 0.00 1011.1
20260506003242 52 335 1.7 4.3 0.00 0.17 0.00 1011.2
20260506002245 53 3 2.6 3.5 0.00 0.17 0.00 1011.2
20260506001241 53 332 5.2 6.1 0.00 0.17 0.00 1011.2
20260506000243 53 248 2.6 2.6 0.00 0.17 0.00 1011.3
20260505235245 53 8 0.9 0.9 0.00 0.17 0.00 1011.2
20260505234242 53 321 2.6 0.9 0.00 0.17 0.00 1011.2
20260505233245 53 321 3.5 5.2 0.00 0.17 0.00 1011.1
20260505232241 54 3 0.0 0.0 0.00 0.17 0.00 1011.2
20260505231242 53 336 2.6 3.5 0.00 0.17 0.00 1011.2
20260505230241 53 1 3.5 2.6 0.00 0.17 0.00 1011.1
20260505225242 53 325 1.7 1.7 0.00 0.17 0.00 1011.1
20260505224245 53 44 2.6 1.7 0.00 0.17 0.00 1010.9
20260505223242 54 359 3.5 2.6 0.00 0.17 0.00 1011.2
20260505222244 54 198 0.0 0.0 0.00 0.17 0.00 1011.4
20260505221241 54 198 0.0 0.0 0.00 0.17 0.00 1011.5
20260505220242 54 240 0.9 1.7 0.00 0.17 0.00 1011.6
20260505215242 55 295 0.0 0.0 0.00 0.10 0.17 1011.6
20260505214241 54 32 0.0 0.0 0.00 0.10 0.17 1011.7
20260505213244 54 24 0.0 2.6 0.00 0.10 0.17 1011.6
20260505212241 55 198 0.0 0.9 0.00 0.10 0.17 1011.6
20260505211242 55 142 0.0 0.0 0.00 0.10 0.17 1011.6
20260505210242 55 284 0.0 0.0 0.00 0.10 0.17 1011.5
20260505205245 55 319 0.0 0.0 0.00 0.10 0.17 1011.5
20260505204248 56 107 0.0 0.0 0.00 0.10 0.17 1011.4
20260505203250 55 107 0.0 0.0 0.00 0.10 0.17 1011.2
20260505202253 55 107 0.9 0.0 0.00 0.10 0.17 1011.1
20260505201241 55 122 2.6 2.6 0.00 0.10 0.17 1011.0
20260505200242 55 124 2.6 1.7 0.00 0.10 0.17 1010.8
20260505195241 56 111 2.6 1.7 0.00 0.10 0.17 1010.6
20260505194243 57 217 0.0 0.0 0.00 0.10 0.17 1010.4
20260505193242 57 217 0.0 0.0 0.00 0.10 0.17 1010.3
20260505192244 57 4 0.0 0.0 0.00 0.10 0.17 1010.0
20260505191247 57 309 1.7 3.5 0.00 0.10 0.17 1010.1
20260505190242 57 343 2.6 0.0 0.00 0.10 0.17 1009.9
20260505185243 57 347 5.2 1.7 0.01 0.10 0.17 1010.0
20260505184241 57 302 0.0 2.6 0.01 0.10 0.17 1010.1
20260505183241 57 58 2.6 1.7 0.01 0.10 0.17 1010.0
20260505182242 57 44 0.9 2.6 0.01 0.10 0.17 1009.7
20260505181242 57 129 0.9 0.0 0.01 0.10 0.17 1009.7